When you browse on this site, cookies collect data to enhance your experience and personalize the content and advertising you see.
Visit our Privacy Policy to learn more. By continuing to use the site, you agree to this use of cookies and data.

Stündliche Wetter Bad Vöslau

Heute, 12 Juli, Sonntag

Zeit Temperatur Niederschläge Wind Luftdruck Luftfeuchtigkeit
00:00 +13°C° 0.1 mm 2 m/S 737 mmHg 91%
01:00 +12°C° 0 mm 3 m/S 738 mmHg 89%
02:00 +12°C° 0 mm 3 m/S 737 mmHg 89%
03:00 +11°C° 0 mm 3 m/S 737 mmHg 90%
04:00 +11°C° 0 mm 3 m/S 737 mmHg 90%
05:00 +12°C° 0 mm 3 m/S 738 mmHg 85%
06:00 +13°C° 0 mm 3 m/S 738 mmHg 80%
07:00 +14°C° 0 mm 3 m/S 738 mmHg 73%
08:00 +15°C° 0 mm 4 m/S 738 mmHg 65%
09:00 +18°C° 0 mm 4 m/S 738 mmHg 57%
10:00 +19°C° 0 mm 4 m/S 738 mmHg 49%
11:00 +20°C° 0 mm 4 m/S 738 mmHg 47%
12:00 +21°C° 0 mm 4 m/S 738 mmHg 45%
13:00 +21°C° 0 mm 4 m/S 739 mmHg 43%
14:00 +21°C° 0 mm 4 m/S 738 mmHg 43%
15:00 +22°C° 0 mm 4 m/S 738 mmHg 44%
16:00 +22°C° 0 mm 4 m/S 738 mmHg 44%
17:00 +20°C° 0 mm 3 m/S 738 mmHg 50%
18:00 +19°C° 0 mm 2 m/S 738 mmHg 56%
19:00 +18°C° 0 mm 2 m/S 738 mmHg 62%
20:00 +17°C° 0 mm 2 m/S 738 mmHg 65%
21:00 +16°C° 0 mm 1 m/S 738 mmHg 69%
22:00 +15°C° 0 mm 1 m/S 738 mmHg 72%
23:00 +14°C° 0 mm 1 m/S 738 mmHg 74%

Morgen, 13 Juli, Montag

Zeit Temperatur Niederschläge Wind Luftdruck Luftfeuchtigkeit
00:00 +14°C° 0 mm 1 m/S 738 mmHg 76%
01:00 +13°C° 0 mm 1 m/S 739 mmHg 78%
02:00 +13°C° 0 mm 1 m/S 738 mmHg 79%
03:00 +13°C° 0 mm 1 m/S 738 mmHg 81%
04:00 +12°C° 0 mm 1 m/S 737 mmHg 82%
05:00 +14°C° 0 mm 1 m/S 738 mmHg 77%
06:00 +15°C° 0 mm 1 m/S 738 mmHg 72%
07:00 +16°C° 0 mm 2 m/S 738 mmHg 67%
08:00 +18°C° 0 mm 2 m/S 738 mmHg 61%
09:00 +19°C° 0 mm 2 m/S 738 mmHg 55%
10:00 +21°C° 0 mm 2 m/S 738 mmHg 48%
11:00 +21°C° 0 mm 2 m/S 737 mmHg 45%
12:00 +23°C° 0 mm 2 m/S 737 mmHg 42%
13:00 +24°C° 0 mm 2 m/S 737 mmHg 40%
14:00 +24°C° 0 mm 3 m/S 736 mmHg 41%
15:00 +22°C° 0 mm 3 m/S 736 mmHg 42%
16:00 +22°C° 0 mm 3 m/S 735 mmHg 43%
17:00 +21°C° 0 mm 3 m/S 735 mmHg 50%
18:00 +20°C° 0 mm 2 m/S 735 mmHg 57%
19:00 +18°C° 0 mm 2 m/S 735 mmHg 64%
20:00 +18°C° 0 mm 1 m/S 735 mmHg 66%
21:00 +16°C° 0 mm 1 m/S 735 mmHg 69%
22:00 +15°C° 0 mm 1 m/S 735 mmHg 72%
23:00 +14°C° 0 mm 1 m/S 735 mmHg 74%

übermorgen, 14 Juli, Dienstag

Zeit Temperatur Niederschläge Wind Luftdruck Luftfeuchtigkeit
00:00 +14°C° 0 mm 1 m/S 735 mmHg 75%
01:00 +13°C° 0 mm 1 m/S 735 mmHg 76%
02:00 +13°C° 0 mm 1 m/S 734 mmHg 78%
03:00 +13°C° 0 mm 1 m/S 734 mmHg 80%
04:00 +12°C° 0 mm 1 m/S 734 mmHg 81%
05:00 +14°C° 0 mm 1 m/S 734 mmHg 76%
06:00 +15°C° 0 mm 1 m/S 734 mmHg 71%
07:00 +18°C° 0 mm 1 m/S 734 mmHg 66%
08:00 +20°C° 0 mm 1 m/S 734 mmHg 61%
09:00 +21°C° 0 mm 1 m/S 734 mmHg 56%
10:00 +23°C° 0 mm 1 m/S 734 mmHg 50%
11:00 +23°C° 0 mm 2 m/S 734 mmHg 49%
12:00 +24°C° 0 mm 2 m/S 733 mmHg 47%
13:00 +24°C° 0 mm 2 m/S 733 mmHg 45%
14:00 +24°C° 0 mm 2 m/S 733 mmHg 46%
15:00 +25°C° 0 mm 2 m/S 732 mmHg 46%
16:00 +25°C° 0 mm 2 m/S 732 mmHg 46%
17:00 +24°C° 0 mm 2 m/S 732 mmHg 51%
18:00 +21°C° 0 mm 2 m/S 732 mmHg 56%
19:00 +21°C° 0 mm 1 m/S 732 mmHg 62%
20:00 +20°C° 0 mm 1 m/S 732 mmHg 64%
21:00 +19°C° 0 mm 1 m/S 732 mmHg 65%
22:00 +18°C° 0 mm 1 m/S 732 mmHg 67%
23:00 +18°C° 0 mm 1 m/S 732 mmHg 69%

15 Juli, Mittwoch

Zeit Temperatur Niederschläge Wind Luftdruck Luftfeuchtigkeit
00:00 +16°C° 0 mm 1 m/S 732 mmHg 71%
01:00 +16°C° 0 mm 1 m/S 732 mmHg 72%
02:00 +15°C° 0 mm 1 m/S 731 mmHg 73%
03:00 +15°C° 0 mm 1 m/S 731 mmHg 74%
04:00 +15°C° 0 mm 1 m/S 731 mmHg 75%
05:00 +16°C° 0 mm 1 m/S 731 mmHg 72%
06:00 +19°C° 0 mm 1 m/S 731 mmHg 68%
07:00 +18°C° 0 mm 0 m/S 732 mmHg 64%
08:00 +22°C° 0 mm 1 m/S 732 mmHg 59%
09:00 +23°C° 0 mm 1 m/S 732 mmHg 53%
10:00 +25°C° 0 mm 1 m/S 732 mmHg 48%
11:00 +25°C° 0.2 mm 1 m/S 731 mmHg 49%
12:00 +25°C° 0.2 mm 2 m/S 731 mmHg 50%
13:00 +26°C° 0.2 mm 2 m/S 730 mmHg 52%
14:00 +26°C° 0.2 mm 2 m/S 730 mmHg 52%
15:00 +26°C° 0.2 mm 2 m/S 730 mmHg 53%
16:00 +25°C° 0.2 mm 3 m/S 730 mmHg 54%
17:00 +24°C° 0 mm 2 m/S 730 mmHg 58%
18:00 +23°C° 0 mm 2 m/S 730 mmHg 63%
19:00 +21°C° 0 mm 2 m/S 730 mmHg 67%
20:00 +21°C° 0 mm 3 m/S 730 mmHg 69%
21:00 +20°C° 0 mm 4 m/S 730 mmHg 72%
22:00 +19°C° 0 mm 5 m/S 731 mmHg 75%
23:00 +18°C° 0.1 mm 4 m/S 731 mmHg 76%

16 Juli, Donnerstag

Zeit Temperatur Niederschläge Wind Luftdruck Luftfeuchtigkeit
00:00 +18°C° 0.1 mm 4 m/S 731 mmHg 78%
01:00 +17°C° 0.1 mm 4 m/S 731 mmHg 80%
02:00 +17°C° 0.2 mm 4 m/S 731 mmHg 81%
03:00 +17°C° 0.2 mm 3 m/S 731 mmHg 82%
04:00 +16°C° 0.2 mm 3 m/S 731 mmHg 82%
05:00 +16°C° 0.1 mm 3 m/S 731 mmHg 82%
06:00 +17°C° 0.1 mm 3 m/S 731 mmHg 82%
07:00 +17°C° 0.1 mm 3 m/S 731 mmHg 82%
08:00 +17°C° 0.2 mm 3 m/S 731 mmHg 81%
09:00 +17°C° 0.2 mm 3 m/S 731 mmHg 80%
10:00 +17°C° 0.2 mm 4 m/S 731 mmHg 79%
11:00 +18°C° 0.1 mm 4 m/S 732 mmHg 72%
12:00 +19°C° 0.1 mm 4 m/S 732 mmHg 65%
13:00 +20°C° 0.1 mm 5 m/S 732 mmHg 58%
14:00 +20°C° 0.1 mm 5 m/S 732 mmHg 56%
15:00 +21°C° 0.1 mm 5 m/S 731 mmHg 55%
16:00 +21°C° 0.1 mm 6 m/S 731 mmHg 54%
17:00 +20°C° 0.1 mm 5 m/S 731 mmHg 58%
18:00 +19°C° 0.1 mm 5 m/S 731 mmHg 63%
19:00 +18°C° 0.1 mm 4 m/S 731 mmHg 68%
20:00 +17°C° 0 mm 4 m/S 731 mmHg 72%
21:00 +15°C° 0 mm 4 m/S 731 mmHg 75%
22:00 +14°C° 0 mm 3 m/S 731 mmHg 78%
23:00 +14°C° 0 mm 3 m/S 731 mmHg 79%

17 Juli, Freitag

Zeit Temperatur Niederschläge Wind Luftdruck Luftfeuchtigkeit
00:00 +14°C° 0 mm 4 m/S 731 mmHg 80%
01:00 +13°C° 0 mm 4 m/S 731 mmHg 82%
02:00 +13°C° 0 mm 4 m/S 730 mmHg 80%
03:00 +13°C° 0 mm 5 m/S 730 mmHg 79%
04:00 +13°C° 0 mm 6 m/S 730 mmHg 77%
05:00 +14°C° 0.2 mm 6 m/S 730 mmHg 79%
06:00 +14°C° 0.2 mm 7 m/S 730 mmHg 80%
07:00 +14°C° 0.2 mm 7 m/S 730 mmHg 82%
08:00 +14°C° 0.5 mm 7 m/S 731 mmHg 83%
09:00 +15°C° 0.5 mm 6 m/S 731 mmHg 84%
10:00 +15°C° 0.5 mm 6 m/S 731 mmHg 84%
11:00 +16°C° 0.4 mm 6 m/S 731 mmHg 79%
12:00 +17°C° 0.4 mm 6 m/S 732 mmHg 74%
13:00 +20°C° 0.4 mm 6 m/S 732 mmHg 68%
14:00 +20°C° 0.3 mm 6 m/S 732 mmHg 68%
15:00 +20°C° 0.3 mm 6 m/S 732 mmHg 67%
16:00 +21°C° 0.3 mm 6 m/S 732 mmHg 66%
17:00 +20°C° 0.4 mm 5 m/S 732 mmHg 70%
18:00 +19°C° 0.4 mm 5 m/S 732 mmHg 75%
19:00 +18°C° 0.4 mm 4 m/S 732 mmHg 79%
20:00 +18°C° 0.1 mm 4 m/S 733 mmHg 81%
21:00 +17°C° 0.1 mm 4 m/S 733 mmHg 83%
22:00 +16°C° 0.1 mm 3 m/S 733 mmHg 84%
23:00 +16°C° 0 mm 3 m/S 733 mmHg 85%
Mehr zeigen